Find Starlink 37274

NORAD ID: 68724 Int'l Des: 2026-081 Owner: SPXS Country: US Constellation: starlink operational
LEOCIRCULAR

Current View

Loading 3D Globe...

About Starlink 37274

Description loading...

Upcoming Passes

Passes for default location (London). Set your location on the main map for personalized predictions.

Altitude History

Loading altitude history...

Two-Line Element Set

1 68724U 26081AB 26150.83475883 .00032331 00000-0 93426-3 0 9993
2 68724 53.1600 12.2416 0000736 59.1390 300.9686 15.35384047 7327
Epoch: May 30, 2026 • Age: 8 hours

Current Status

Altitude 465.3 km
Velocity 7.64 km/s
Sub-Earth Point 50.97°N, 126.16°E
Launch Date Apr 14, 2026
Age 0.1 years
Type internet

Technical Details

Classification Payload
Mass 575.00 kg
Dry Mass 530.00 kg
Total Mass 575.00 kg
Length 0.30 m
Diameter 4.10 m
Span 29.00 m
Shape Box + pan
Manufacturer SPXS
Bus Type Starlink V2MO
Phase Status In Orbit
Owner/State SPXS/US

Most Searched